SCP
2 2 2 2 3 3 2 2 2 2 2 2 1 1 1 1 1 1 0 0 0 0 0 0 0 0 0 1 1 1 1 0 0 0 0 0 0 0 0 0 0 0 0
2 2 2 2 3 3 2 2 2 2 2 2 1 1 1 1 1 1 1 1 0 0 0 0 0 0 0 1 1 1 1 0 0 0 0 0 0 0 0 0 0 0 0
2 2 2 2 2 2 2 2 3 2 2 2 1 1 1 1 1 1 1 1 1 1 1 1 0 0 1 1 1 1 1 0 0 0 0 0 0 0 0 0 0 0 0
2 2 2 3 3 2 2 3 3 3 2 2 1 1 1 1 1 1 1 1 1 1 1 1 1 1 1 1 1 1 1 0 0 0 0 0 0 0 0 0 0 0 0
2 2 3 3 3 3 3 3 3 3 2 2 1 1 1 1 1 1 1 1 1 1 1 1 1 1 1 1 1 1 1 0 0 0 0 0 0 0 0 0 0 0 0
3 3 3 3 3 3 3 3 3 3 2 2 2 2 2 1 1 1 1 1 1 1 1 1 1 1 1 1 1 1 0 0 0 0 0 0 0 0 0 0 0 0 0
3 3 3 3 3 3 3 3 3 3 3 2 2 2 2 2 2 2 1 1 1 1 1 1 0 0 1 1 1 1 0 0 0 0 0 0 0 0 0 0 0 0 0
5 4 3 3 3 3 3 3 3 3 3 3 2 2 2 2 2 2 2 1 1 1 1 1 0 1 1 1 1 1 0 0 0 0 0 0 0 0 0 0 0 0 1
5 5 4 3 3 3 4 3 3 3 3 2 2 2 2 3 2 2 2 1 1 1 1 1 1 1 1 1 1 1 0 0 0 0 0 0 0 0 0 0 0 0 0
5 5 4 3 3 3 3 3 2 2 2 2 2 2 2 2 2 2 2 2 2 1 1 1 1 1 1 1 1 1 0 0 0 0 0 0 0 0 0 0 0 0 0
4 4 3 3 3 3 3 2 2 2 2 2 2 2 1 2 2 2 2 2 2 2 1 1 1 1 1 0 1 1 1 0 0 0 0 0 0 0 0 0 0 0 0
4 3 3 3 3 3 3 3 2 2 2 2 2 2 1 1 1 2 2 2 2 2 1 1 1 1 1 1 1 1 1 1 0 0 0 0 0 0 0 0 0 0 0
4 4 3 3 3 3 4 4 3 3 2 2 2 2 2 2 2 2 2 2 2 2 2 1 1 1 1 1 1 1 1 1 1 0 0 0 0 0 0 0 0 0 0
4 4 3 3 3 3 4 4 3 3 3 2 2 2 2 2 2 2 3 3 3 2 2 1 1 1 1 1 1 1 1 1 1 1 0 0 0 0 1 1 1 0 1
4 4 3 3 3 3 4 4 3 3 3 2 2 2 2 2 2 2 2 3 3 2 2 1 1 1 1 1 0 0 1 1 1 1 1 0 0 0 1 1 1 1 1
4 4 4 4 3 3 3 4 3 3 3 2 2 1 1 1 1 1 2 3 3 3 2 1 1 1 1 1 1 0 0 1 1 1 1 0 0 0 1 1 1 1 1
3 3 4 4 4 4 3 4 3 3 2 2 2 1 1 1 1 1 2 2 3 3 2 2 1 1 1 1 1 1 1 1 1 1 1 1 0 0 0 1 1 1 1
3 3 4 5 5 4 4 3 3 2 2 2 2 2 1 1 1 1 1 2 2 2 2 2 1 1 1 1 1 1 1 1 1 1 1 1 1 1 0 0 1 1 1
3 3 3 4 4 4 4 3 2 2 2 2 2 2 1 1 1 1 1 1 1 2 2 2 1 1 1 1 1 0 1 1 1 1 1 1 1 1 1 1 0 1 1
2 2 3 3 3 3 3 2 2 2 2 2 2 1 1 1 1 1 1 1 1 2 2 2 1 1 1 1 0 0 0 0 1 1 1 1 1 1 1 1 1 1 1
3 2 2 2 2 2 2 1 1 1 1 1 1 1 1 1 1 1 1 1 1 1 2 2 1 1 1 1 0 0 0 0 0 0 0 1 1 1 1 1 1 1 1
3 3 2 2 2 2 1 1 1 1 1 1 1 1 0 0 1 1 1 1 1 1 1 2 1 1 1 0 0 0 0 0 0 0 0 0 1 1 1 1 1 1 1
3 3 2 2 2 2 1 1 1 0 0 0 1 1 1 0 1 1 1 1 1 1 1 1 2 1 1 0 0 0 0 0 0 0 0 0 0 0 0 0 0 0 0
3 2 2 2 2 2 2 1 0 0 0 0 0 1 1 1 1 1 1 1 1 1 1 1 2 2 1 0 0 0 0 0 0 0 0 0 0 1 1 0 0 0 0
2 2 2 1 2 2 1 1 0 0 0 0 0 0 1 1 1 0 1 1 1 0 0 1 1 2 1 1 0 0 0 0 0 0 0 0 0 0 1 1 0 0 0
2 2 1 1 2 2 1 1 0 0 0 0 0 0 1 1 1 0 0 1 1 0 0 0 1 2 1 1 0 0 0 0 0 0 0 0 0 0 1 1 1 1 0
Wind_Speed
9 11 14 13 13 12 12 12 12 12 13 13 13 13 13 13 13 13 13 12 12 13 13 14 14 14 14 14 14 14 15 15 15 15 14 14 14 14 13 11 10 12 14
11 12 14 13 13 12 12 12 12 12 12 12 13 13 13 13 13 12 12 12 13 13 13 13 14 14 14 14 14 14 14 14 14 13 10 11 12 13 13 13 13 11 14
12 13 14 13 12 12 12 12 11 11 12 12 12 12 13 12 12 12 12 12 12 13 13 13 13 14 14 14 14 14 14 14 13 9 6 10 12 13 14 14 14 14 14
11 11 12 12 12 12 12 12 11 11 12 11 11 12 12 12 12 12 12 12 12 12 13 13 13 13 13 13 13 13 13 12 10 4 7 9 10 13 14 14 14 14 14
11 10 12 12 12 12 12 12 11 11 11 11 11 11 12 12 12 12 12 12 12 12 12 13 13 13 12 13 13 13 12 11 7 7 9 9 9 12 13 13 13 13 13
11 10 12 11 11 11 11 11 11 11 11 11 11 11 11 12 12 12 12 12 11 11 12 12 12 12 12 12 12 12 11 7 5 8 8 8 9 11 12 13 13 13 13
10 9 11 11 11 11 11 11 11 11 12 12 12 12 11 12 12 12 12 11 11 11 11 11 11 11 11 12 12 11 9 4 6 8 8 8 9 11 12 12 12 12 12
9 9 10 10 10 10 10 11 10 10 11 11 11 11 11 11 12 12 11 11 11 11 11 11 11 11 11 11 11 10 7 4 7 8 8 8 10 10 11 11 11 11 11
8 8 9 10 10 10 10 10 10 10 10 10 11 10 10 10 11 11 10 10 10 11 11 11 11 11 11 11 11 10 7 4 6 6 7 7 8 9 10 10 10 10 11
6 7 7 8 8 9 9 9 9 9 10 10 10 10 9 10 10 10 9 9 10 10 10 10 10 10 10 10 10 9 6 3 6 6 5 7 8 9 9 9 9 9 10
5 5 6 6 6 7 7 8 9 9 9 9 9 9 8 7 8 8 9 9 9 10 10 10 10 10 9 9 8 6 3 3 5 4 5 8 8 8 9 9 9 9 10
6 5 4 5 5 6 5 6 5 6 7 6 6 7 5 5 5 6 9 9 9 9 9 9 10 9 5 5 6 4 3 4 4 4 5 7 7 7 8 8 8 9 10
6 5 4 5 5 5 4 4 3 3 4 5 6 6 5 5 4 5 5 6 7 7 6 7 6 4 4 4 4 3 3 3 3 3 6 7 7 7 7 7 8 8 9
5 5 4 4 4 5 4 4 4 3 3 4 4 5 4 3 4 4 3 4 4 4 4 4 3 4 4 5 4 4 4 3 3 3 5 6 6 7 7 7 7 7 8
5 4 4 4 4 4 4 3 4 4 4 4 4 4 4 4 4 4 3 3 4 4 4 4 4 4 4 4 4 4 4 4 4 3 4 6 6 7 7 7 7 7 8
4 4 4 4 4 4 4 4 3 3 3 4 4 4 4 3 3 4 4 4 4 3 4 4 5 4 4 3 4 4 4 3 3 3 4 5 6 5 6 6 6 7 7
3 3 3 4 4 4 4 4 3 3 3 3 3 4 4 4 4 4 3 4 4 4 5 4 5 4 3 4 4 3 3 3 3 3 3 3 4 5 5 5 6 6 6
3 3 3 2 3 4 4 4 3 3 3 3 3 3 4 4 5 4 4 3 4 4 4 4 4 4 4 3 3 2 2 2 2 2 2 2 2 2 4 5 5 5 5
2 3 4 3 3 3 3 3 3 3 3 3 3 3 4 4 4 4 4 4 4 4 4 4 4 4 4 4 3 2 2 2 2 2 2 2 2 2 2 5 5 5 4
1 2 3 3 3 3 3 3 3 3 3 2 2 3 4 4 4 4 4 5 5 4 4 4 5 4 4 4 3 2 1 1 1 1 1 1 2 2 1 2 2 3 5
2 2 3 3 3 2 2 2 3 3 3 2 2 3 3 4 4 4 4 5 5 5 5 6 5 6 4 4 3 2 2 1 1 1 1 1 2 1 1 2 1 1 2
1 1 2 2 3 2 2 2 2 2 2 2 2 2 3 4 4 4 5 4 5 5 6 7 6 4 3 4 3 3 3 3 2 1 1 1 2 2 1 1 1 1 0
1 1 1 2 2 2 2 2 2 2 2 2 2 2 2 3 3 3 4 4 5 5 6 7 7 7 5 4 3 3 3 3 3 2 3 2 2 2 2 2 1 1 1
0 0 0 1 1 1 2 3 4 3 3 3 2 2 2 3 3 3 4 5 5 5 5 6 7 6 7 5 3 2 2 1 3 3 3 3 3 3 3 2 2 2 2
1 1 1 1 1 1 1 2 3 3 3 2 3 3 3 3 3 3 3 4 4 4 5 6 7 7 6 6 5 4 3 2 3 3 3 3 3 3 3 3 2 2 2
3 2 2 2 1 0 1 1 2 3 3 4 4 4 3 2 3 3 3 4 4 4 5 5 5 7 6 6 5 4 4 4 4 3 3 3 3 3 3 3 3 3 2
Wind_Direction
156 153 149 148 149 146 143 140 139 138 137 136 134 131 128 125 120 116 113 111 108 106 105 105 103 100 98 96 93 90 87 85 84 82 80 77 78 78 74 69 73 79 75
151 152 147 146 146 146 144 142 140 138 136 134 134 133 130 126 123 119 116 113 110 107 104 103 103 101 99 96 94 91 89 88 87 85 87 86 78 78 75 67 63 73 74
148 149 150 147 145 143 143 142 141 139 136 133 133 133 131 127 125 122 118 115 111 107 104 101 101 102 101 99 96 94 92 90 89 88 98 92 86 80 79 77 76 75 74
148 149 151 144 145 144 142 143 142 141 138 137 134 134 133 130 127 125 121 118 112 107 105 102 101 103 102 100 99 97 94 91 87 89 88 85 86 83 82 80 78 76 74
148 150 143 142 142 142 142 142 143 140 139 137 134 132 132 130 128 126 123 117 112 108 107 106 105 103 104 104 102 100 96 93 89 87 84 83 84 86 83 80 77 75 74
148 148 142 142 141 139 138 142 143 141 138 135 132 129 128 129 127 122 119 116 114 112 111 109 108 106 105 106 105 103 99 101 113 90 87 84 85 87 85 81 77 75 73
148 146 145 143 142 142 140 138 139 140 138 134 132 132 130 128 125 122 120 118 116 115 116 113 111 111 108 108 107 104 100 87 92 91 86 83 83 87 87 83 79 77 74
146 146 145 139 138 140 140 137 134 135 138 136 135 133 131 128 124 123 121 121 119 117 115 115 115 113 109 107 107 103 98 96 97 91 87 84 80 85 86 83 80 79 77
144 145 146 149 145 137 133 132 132 130 132 134 132 129 125 123 124 122 120 120 120 119 117 116 114 111 109 106 103 99 90 66 96 90 89 84 82 85 88 86 82 81 80
139 140 143 150 151 150 144 132 128 126 126 125 124 120 118 119 121 122 123 117 117 118 118 117 114 110 106 104 102 100 102 133 99 96 88 88 87 88 91 88 85 85 83
136 137 143 147 148 150 149 140 134 125 124 128 125 124 137 144 139 135 120 113 114 116 118 118 115 110 108 104 100 106 138 119 101 88 85 88 93 92 91 90 88 88 85
155 150 146 149 148 148 147 148 152 148 144 147 143 147 157 147 137 132 116 112 113 113 116 115 116 121 132 127 120 143 137 115 102 95 87 88 97 97 94 94 93 93 90
163 156 151 149 150 150 145 145 147 144 143 145 148 151 150 145 141 141 140 137 136 137 131 128 137 135 133 127 138 140 121 111 100 98 90 86 95 99 98 97 98 98 95
165 161 148 147 152 152 148 150 152 147 145 144 147 154 155 149 151 149 152 153 154 147 139 140 137 131 129 130 135 129 122 114 109 101 89 77 90 99 100 97 97 100 96
166 160 152 151 151 148 149 151 153 152 151 145 146 153 159 158 157 153 153 155 156 149 148 143 138 134 136 132 129 126 120 115 113 109 104 78 79 92 96 95 95 99 96
168 162 152 148 145 144 148 151 149 151 149 150 150 151 155 155 153 158 158 157 153 151 148 149 143 142 137 132 132 130 123 115 110 113 115 106 80 79 95 98 98 98 94
176 163 153 149 144 148 148 149 144 146 153 152 146 154 155 156 159 158 157 159 151 149 151 147 143 141 131 132 133 128 122 119 121 117 117 115 110 83 78 92 100 99 96
170 159 146 143 148 151 148 147 144 149 154 153 147 152 157 160 164 161 152 157 155 156 157 153 152 145 142 143 137 130 126 124 128 122 123 120 109 108 89 79 88 93 96
171 160 147 144 150 149 145 144 136 137 147 150 151 153 158 163 169 166 159 155 161 162 163 157 160 156 153 146 137 131 126 126 129 133 130 118 99 94 104 90 78 70 76
146 154 149 148 142 143 140 139 133 133 140 144 150 156 161 166 171 167 162 164 165 166 167 166 159 157 155 146 133 120 110 123 133 140 146 132 123 114 107 112 108 82 66
102 129 152 149 146 148 149 153 156 160 155 151 155 157 163 168 173 174 168 171 175 180 177 170 157 157 153 152 145 139 130 132 146 156 177 172 144 132 116 103 98 106 102
112 109 151 160 165 170 168 164 164 159 156 155 154 160 169 171 177 186 182 179 180 183 183 176 168 165 160 180 176 169 176 182 179 185 192 197 189 176 164 153 135 118 107
95 121 175 182 176 172 161 153 137 132 134 154 165 169 178 181 183 190 192 186 184 187 192 186 183 181 173 184 205 205 199 195 163 177 197 203 204 201 196 189 194 192 207
30 27 72 188 164 163 163 171 176 184 185 188 184 182 180 185 188 193 196 194 191 190 194 194 193 194 184 183 190 227 274 185 185 169 185 202 207 216 212 204 206 205 218
47 44 34 58 126 155 179 180 192 199 199 182 179 183 187 185 191 195 198 199 197 194 195 199 194 199 200 198 189 186 196 217 229 207 193 192 201 211 216 218 218 215 222
44 43 44 54 52 97 171 182 202 201 195 191 190 187 190 189 193 199 201 202 203 201 198 201 203 203 206 205 200 196 196 200 206 216 217 205 209 199 205 216 222 221 225